Location: Wildlife_Club
(35.6000°N, 81.4330°W)
Time: 07:14:56
(UTC-04:00)

A-11 Canister half - Pass Details

Date: 27 June 2019
Orbit: 1514 x 1686 km, 47.2° (Epoch: 17 August)

Event Time Altitude Azimuth Distance (km) Brightness Sun altitude
Rises 11:26:16 0° 255° (WSW) 4,924 11.4 60.8°
Reaches altitude 10° 11:29:34 10° 259° (W) 3,926 11.0 61.4°
Maximum altitude 11:39:26 57° 337° (NNW) 1,878 10.1 63.3°
Drops below altitude 10° 11:49:02 10° 55° (NE) 3,812 11.4 65.2°
Sets 11:52:11 0° 60° (ENE) 4,774 11.8 65.7°
